GW5225 Weather Reports


Display with metric or nautical units.
time (UTC)temp
F
wind
direction
speed
MPH
gust
MPH
rain 1hr
in
rain 24hr
in
rain mn
in
humidity
%
barometer
mb
20260506123807 46 65 0.0 3.0 0.00 1.00 0.53 97 972.3
20260506122807 46 175 0.0 2.0 0.00 1.00 0.53 97 972.3
20260506122307 46 107 1.0 2.0 0.00 1.00 0.53 97 971.9
20260506121802 46 272 1.0 3.0 0.00 1.00 0.53 97 971.9
20260506121302 46 330 2.0 3.0 0.00 1.00 0.53 97 971.6
20260506120301 46 46 0.0 2.0 0.00 1.01 0.53 97 971.6
20260506115802 46 290 1.0 2.0 0.00 1.01 0.53 97 971.2
20260506115301 46 285 0.0 2.0 0.00 1.01 0.53 97 971.9
20260506114803 46 72 2.0 2.0 0.00 1.01 0.53 97 971.6
20260506114302 46 315 1.0 3.0 0.00 1.01 0.53 97 971.2
20260506113802 46 45 0.0 3.0 0.00 1.01 0.53 97 971.6
20260506113302 46 338 2.0 4.0 0.00 1.01 0.53 97 971.2
20260506112802 46 357 2.0 4.0 0.00 1.01 0.53 97 971.2
20260506112305 46 102 1.0 3.0 0.00 1.01 0.53 97 970.9
20260506111302 46 353 2.0 4.0 0.01 1.01 0.53 97 971.6
20260506110802 46 325 2.0 4.0 0.01 1.01 0.53 97 971.9
20260506105802 45 343 2.0 3.0 0.01 1.01 0.53 97 971.2
20260506103801 45 352 2.0 3.0 0.04 1.01 0.53 97 970.2
20260506103301 45 321 2.0 4.0 0.04 1.01 0.53 97 969.9
20260506102800 45 27 3.0 4.0 0.05 1.01 0.53 97 969.9
20260506102301 45 29 3.0 4.0 0.05 1.01 0.53 97 969.9
20260506101803 45 339 2.0 3.0 0.07 1.01 0.53 97 969.9
20260506101259 45 54 2.0 3.0 0.06 1.00 0.52 97 969.9
20260506100800 45 349 2.0 5.0 0.07 1.00 0.52 97 970.2
20260506100259 45 41 1.0 5.0 0.08 1.00 0.52 97 969.9
20260506095759 45 30 2.0 4.0 0.08 1.00 0.52 97 970.6
20260506094758 45 354 2.0 6.0 0.06 0.98 0.50 97 970.6
20260506094258 45 23 1.0 4.0 0.07 0.98 0.50 97 970.9
20260506093757 45 1 1.0 4.0 0.06 0.97 0.49 97 970.6
20260506093257 45 32 2.0 5.0 0.05 0.96 0.48 97 970.6
20260506092257 45 337 2.0 5.0 0.05 0.95 0.47 96 970.6
20260506091756 45 359 3.0 5.0 0.04 0.94 0.46 96 970.6
20260506091257 45 10 2.0 4.0 0.05 0.94 0.46 96 970.6
20260506090756 45 224 0.0 4.0 0.05 0.93 0.45 96 970.6
20260506090256 45 17 2.0 4.0 0.06 0.92 0.44 96 970.6
20260506085756 45 343 2.0 7.0 0.07 0.92 0.44 96 970.6
20260506085255 45 312 2.0 8.0 0.09 0.92 0.44 96 970.6
20260506084755 45 34 6.0 8.0 0.10 0.92 0.43 96 970.6
20260506084255 45 339 2.0 7.0 0.11 0.91 0.43 96 970.6
20260506083755 45 335 2.0 7.0 0.12 0.91 0.43 96 970.2
20260506083254 45 2 3.0 7.0 0.14 0.91 0.42 97 969.9
20260506082254 46 352 5.0 9.0 0.15 0.90 0.42 97 970.2
20260506081754 46 9 1.0 4.0 0.16 0.90 0.42 97 970.2
20260506081253 46 354 3.0 4.0 0.16 0.89 0.41 97 970.2
20260506080753 46 6 2.0 4.0 0.15 0.88 0.40 97 970.2
20260506080253 47 0 3.0 6.0 0.14 0.86 0.38 97 970.6
20260506073251 48 359 4.0 5.0 0.09 0.77 0.29 97 969.9
20260506072751 48 352 4.0 5.0 0.09 0.76 0.28 97 969.5
20260506072251 48 349 2.0 4.0 0.09 0.75 0.27 97 969.5
20260506071750 48 354 3.0 4.0 0.09 0.74 0.26 97 969.5
20260506071250 48 334 2.0 4.0 0.10 0.73 0.25 97 969.5
20260506070249 48 34 2.0 4.0 0.11 0.72 0.24 96 969.5
20260506062247 49 350 2.0 5.0 0.10 0.66 0.18 97 969.9
20260506061747 49 30 2.0 5.0 0.08 0.64 0.16 97 970.2
20260506060746 49 336 1.0 4.0 0.06 0.61 0.13 97 970.2
20260506060246 49 353 2.0 3.0 0.05 0.60 0.12 97 970.2
20260506051243 49 337 2.0 5.0 0.05 0.55 0.07 96 970.6
20260506050743 49 31 5.0 5.0 0.06 0.55 0.07 96 970.6
20260506050243 49 0 2.0 5.0 0.07 0.55 0.07 96 970.9
20260506044742 49 349 2.0 4.0 0.08 0.54 0.05 96 970.9
20260506044242 49 358 3.0 5.0 0.08 0.53 0.04 96 971.2
20260506043742 49 348 2.0 5.0 0.07 0.52 0.04 96 971.2
20260506043242 49 17 3.0 6.0 0.08 0.52 0.03 96 970.9
20260506042741 49 1 4.0 6.0 0.07 0.51 0.03 96 970.9
20260506041741 50 38 3.0 4.0 0.07 0.50 0.02 96 971.2
20260506041240 50 340 3.0 5.0 0.07 0.50 0.02 96 970.9
20260506040740 50 4 3.0 5.0 0.07 0.49 0.01 96 970.9
20260506035740 51 46 2.0 5.0 0.05 0.47 0.47 96 970.9
20260506035240 51 39 1.0 5.0 0.06 0.47 0.47 96 970.9
20260506034740 51 21 2.0 4.0 0.05 0.46 0.46 96 971.2
20260506034239 51 25 3.0 4.0 0.04 0.45 0.45 96 970.9
20260506033739 51 358 2.0 4.0 0.05 0.45 0.44 96 970.9
20260506033238 51 344 0.0 6.0 0.04 0.44 0.44 96 970.9
20260506032738 51 25 1.0 6.0 0.05 0.44 0.44 96 970.9
20260506031738 51 359 3.0 5.0 0.06 0.43 0.43 95 971.2
20260506031237 52 1 0.0 6.0 0.08 0.43 0.43 95 971.2
20260506030237 53 28 3.0 9.0 0.09 0.42 0.42 95 971.2
20260506025236 56 348 5.0 10.0 0.09 0.41 0.41 96 971.6
20260506024735 58 301 3.0 6.0 0.09 0.41 0.41 96 971.2
20260506024236 58 264 3.0 6.0 0.09 0.41 0.40 96 971.2
20260506023735 58 348 1.0 6.0 0.09 0.40 0.40 96 971.2
20260506023236 58 289 2.0 7.0 0.09 0.40 0.39 96 971.2
20260506022735 58 336 2.0 7.0 0.08 0.39 0.39 96 971.2
20260506021734 58 333 0.0 2.0 0.05 0.36 0.36 96 971.2
20260506020232 58 135 0.0 2.0 0.02 0.33 0.33 95 970.6
20260506015733 58 155 2.0 2.0 0.02 0.33 0.33 96 970.9
20260506014732 58 106 0.0 1.0 0.01 0.32 0.32 95 970.9
20260506013732 58 75 0.0 1.0 0.00 0.31 0.31 95 970.9
20260506013231 57 230 0.0 1.0 0.00 0.31 0.31 95 970.6
20260506012731 57 322 0.0 1.0 0.00 0.31 0.31 95 970.9
20260506012231 57 44 0.0 0.0 0.00 0.31 0.31 95 970.6
20260506011731 57 22 0.0 1.0 0.01 0.31 0.31 95 970.6
20260506011230 57 22 0.0 1.0 0.01 0.31 0.31 95 970.6
20260506010730 57 44 0.0 1.0 0.01 0.31 0.31 94 970.6
20260506010230 57 64 0.0 1.0 0.01 0.31 0.31 94 970.6
20260506005730 57 224 0.0 0.0 0.02 0.31 0.31 94 970.6
20260506005230 57 50 0.0 0.0 0.02 0.31 0.31 94 970.6
20260506004730 57 290 0.0 0.0 0.03 0.31 0.31 94 970.6
20260506004233 57 290 0.0 0.0 0.04 0.31 0.31 94 970.6
20260506003733 57 290 0.0 2.0 0.06 0.31 0.31 94 970.6
20260506003229 57 290 0.0 2.0 0.08 0.31 0.31 94 970.6
20260506002728 57 44 0.0 0.0 0.12 0.31 0.31 94 970.6
20260506002229 57 315 0.0 0.0 0.22 0.31 0.30 94 970.6
20260506001728 57 129 0.0 0.0 0.24 0.30 0.30 94 970.6
20260506001227 57 129 0.0 0.0 0.26 0.30 0.30 94 970.9
20260506000227 57 129 0.0 1.0 0.26 0.30 0.30 94 970.9
20260505235727 57 117 0.0 1.0 0.25 0.29 0.29 94 970.9
20260505235227 57 117 0.0 2.0 0.25 0.29 0.29 93 970.9
20260505234226 58 224 2.0 5.0 0.23 0.27 0.26 93 970.6
20260505233726 58 251 0.0 5.0 0.21 0.25 0.24 93 970.9
20260505232725 59 289 4.0 6.0 0.14 0.18 0.17 91 971.2
20260505232225 60 285 3.0 5.0 0.04 0.08 0.07 88 970.9
20260505231725 60 348 2.0 3.0 0.02 0.06 0.06 85 970.9
20260505231224 61 315 0.0 2.0 0.00 0.04 0.04 83 970.2
20260505230724 61 208 1.0 3.0 0.00 0.04 0.04 83 970.2
20260505230224 61 205 0.0 3.0 0.00 0.04 0.04 83 970.2
20260505225224 61 81 0.0 2.0 0.00 0.04 0.04 82 969.9
20260505224723 61 44 0.0 2.0 0.00 0.04 0.04 82 969.9
20260505224226 62 26 1.0 3.0 0.00 0.04 0.04 81 970.2
20260505223723 62 222 1.0 3.0 0.00 0.04 0.04 81 970.2
20260505222723 62 319 2.0 3.0 0.00 0.04 0.04 81 970.2
20260505221722 63 8 1.0 5.0 0.00 0.04 0.04 80 970.2
20260505221221 63 33 2.0 4.0 0.00 0.04 0.04 79 970.2
20260505220721 63 32 4.0 4.0 0.00 0.04 0.04 78 970.2
20260505220221 64 333 2.0 4.0 0.00 0.04 0.04 76 970.6
20260505215720 64 354 1.0 5.0 0.00 0.04 0.04 75 970.6
20260505215220 64 301 1.0 5.0 0.00 0.04 0.04 73 970.2
20260505214720 65 9 1.0 5.0 0.00 0.04 0.04 72 970.2
20260505214219 65 0 0.0 5.0 0.00 0.04 0.04 70 970.6
20260505213719 65 294 4.0 5.0 0.00 0.04 0.04 71 970.2
20260505213219 65 318 4.0 6.0 0.00 0.04 0.04 72 970.2
20260505212219 65 269 0.0 8.0 0.00 0.04 0.04 71 970.2
20260505211718 65 241 1.0 10.0 0.00 0.04 0.04 72 970.6
20260505211218 64 261 2.0 10.0 0.00 0.04 0.04 72 970.2
20260505210718 64 229 3.0 8.0 0.00 0.04 0.04 74 970.2
20260505210218 64 319 5.0 9.0 0.01 0.04 0.04 75 970.2
20260505205217 64 350 0.0 8.0 0.03 0.04 0.04 77 970.6
20260505204717 64 340 2.0 8.0 0.03 0.04 0.04 76 970.6
20260505204220 63 254 1.0 7.0 0.03 0.04 0.04 77 970.6
20260505203716 63 211 4.0 8.0 0.03 0.04 0.04 78 970.6
20260505203216 63 319 2.0 9.0 0.03 0.04 0.04 78 970.6
20260505202716 62 216 5.0 11.0 0.03 0.04 0.04 79 970.6
20260505202216 62 215 2.0 11.0 0.03 0.04 0.04 79 970.6
20260505201715 62 228 4.0 8.0 0.03 0.04 0.04 80 970.6
20260505201215 63 258 2.0 8.0 0.03 0.04 0.04 79 970.9
20260505200715 64 236 2.0 10.0 0.03 0.04 0.04 75 970.9
20260505195214 67 330 0.0 8.0 0.00 0.01 0.01 65 970.6
20260505194714 67 310 4.0 9.0 0.00 0.01 0.01 61 970.6
20260505194213 68 294 2.0 9.0 0.00 0.01 0.01 59 970.6
20260505193713 68 294 2.0 6.0 0.00 0.01 0.01 59 970.6
20260505193213 68 304 4.0 9.0 0.00 0.01 0.01 58 970.6
20260505192712 68 228 1.0 9.0 0.00 0.01 0.01 58 970.6
20260505192212 67 252 3.0 5.0 0.00 0.01 0.01 59 970.6
20260505191712 67 249 2.0 8.0 0.00 0.01 0.01 59 970.6
20260505190211 67 301 5.0 10.0 0.00 0.01 0.01 60 970.9
20260505185711 66 331 2.0 10.0 0.00 0.01 0.01 60 970.6
20260505185211 66 192 4.0 9.0 0.00 0.01 0.01 61 970.9
20260505184714 67 321 7.0 9.0 0.00 0.01 0.01 60 970.9
20260505184213 67 277 3.0 7.0 0.00 0.01 0.01 60 970.9
20260505183710 66 337 3.0 5.0 0.00 0.01 0.01 62 971.2
20260505183210 66 289 4.0 7.0 0.00 0.01 0.01 62 971.6
20260505181209 66 313 4.0 11.0 0.00 0.01 0.01 61 971.6
20260505180708 66 296 3.0 12.0 0.00 0.01 0.01 61 971.2
20260505180208 67 283 2.0 12.0 0.00 0.01 0.01 60 971.2
20260505175708 67 269 4.0 10.0 0.00 0.01 0.01 60 971.2
20260505175208 67 311 2.0 10.0 0.00 0.01 0.01 60 971.2
20260505174707 67 315 3.0 11.0 0.00 0.01 0.01 59 971.2
20260505174207 67 207 2.0 11.0 0.00 0.01 0.01 58 971.2
20260505173702 68 215 5.0 11.0 0.00 0.01 0.01 58 970.9
20260505173202 68 262 2.0 9.0 0.00 0.01 0.01 58 971.2
20260505172702 68 304 4.0 10.0 0.00 0.01 0.01 57 970.9
20260505172202 68 301 6.0 15.0 0.00 0.01 0.01 56 971.2
20260505171201 68 220 10.0 16.0 0.00 0.01 0.01 56 970.9
20260505170703 68 244 4.0 16.0 0.00 0.01 0.01 55 971.2
20260505170203 68 317 4.0 11.0 0.00 0.01 0.01 56 971.2
20260505165702 68 230 5.0 11.0 0.00 0.01 0.01 56 971.2
20260505165201 67 300 3.0 10.0 0.00 0.01 0.01 57 970.9
20260505164702 68 257 5.0 12.0 0.00 0.01 0.01 56 970.9
20260505164205 68 327 6.0 15.0 0.00 0.01 0.01 57 970.9
20260505163703 68 221 6.0 15.0 0.00 0.01 0.01 55 970.9
20260505163203 68 308 2.0 13.0 0.00 0.01 0.01 55 970.9
20260505162702 69 136 5.0 9.0 0.00 0.01 0.01 55 971.2
20260505162202 69 283 5.0 11.0 0.00 0.01 0.01 56 970.9
20260505161702 69 253 3.0 11.0 0.00 0.01 0.01 56 970.6
20260505161202 68 213 4.0 12.0 0.00 0.01 0.01 57 970.6
20260505160702 69 207 1.0 12.0 0.00 0.01 0.01 58 970.6
20260505160202 68 201 3.0 12.0 0.00 0.01 0.01 58 970.6
20260505153200 67 228 4.0 10.0 0.00 0.01 0.01 61 970.6
20260505152659 67 340 4.0 13.0 0.00 0.01 0.01 61 970.6
20260505152200 67 306 4.0 12.0 0.00 0.01 0.01 61 970.6
20260505151700 67 84 2.0 15.0 0.00 0.01 0.01 61 970.6
20260505151159 66 220 4.0 15.0 0.00 0.01 0.01 61 970.9
20260505150158 65 266 2.0 13.0 0.00 0.01 0.01 64 970.6
20260505140155 63 213 9.0 15.0 0.00 0.01 0.01 65 970.6
20260505130152 61 221 1.0 6.0 0.01 0.01 0.01 71 970.2
20260505124652 61 190 0.0 6.0 0.01 0.01 0.01 70 970.2